Location: Unspecified
(0.0000°N, 0.0000°E)
Time: 14:52:15
(UTC+00:00)

Vanguard 1 Rocket - Visible Passes

Search period start: 27 July 2017 00:00
Search period end: 06 August 2017 00:00
Orbit: 653 x 4225 km, 34.3° (Epoch: 26 July)

Date Brightness Start Highest point End Pass type
(mag) Time Alt. Az. Time Alt. Az. Time Alt. Az.
27 Jul 9.7 02:31:26 35° NNE 02:31:26 35° NNE 02:35:43 10° NE visible
27 Jul 11.2 19:44:51 10° SW 20:03:00 23° S 20:10:07 21° SSE visible
27 Jul 11.4 22:18:29 10° SW 22:27:24 24° SSW 22:27:24 24° SSW visible
28 Jul 10.6 01:24:10 17° NE 01:24:10 17° NE 01:25:29 10° NE visible
28 Jul 10.0 03:41:26 21° NW 03:41:26 21° NW 03:47:30 10° N visible
28 Jul 11.4 18:29:18 10° SW 18:44:17 21° S 19:01:46 10° SE visible
28 Jul 11.1 21:03:27 10° SW 21:20:18 31° S 21:20:18 31° S visible
28 Jul 11.4 23:36:19 10° SW 00:16:52 - ENE 23:37:36 12° SW visible
29 Jul 9.9 02:34:08 31° N 02:34:08 31° N 02:38:39 10° NNE visible
29 Jul 11.1 19:48:39 10° SSW 20:08:00 26° SSE 20:13:15 25° SSE visible
29 Jul 11.3 22:20:57 10° SW 22:30:34 27° SSW 22:30:34 27° SSW visible
30 Jul 10.5 01:26:48 19° NE 01:26:48 19° NE 01:28:41 10° NE visible
30 Jul 10.3 03:44:04 16° NW 03:44:24 16° NW 03:49:35 10° N visible
30 Jul 11.4 18:34:01 10° SW 18:49:35 21° S 19:06:15 11° SE visible
30 Jul 11.0 21:06:12 10° SW 21:23:34 36° S 21:23:34 36° S visible
30 Jul 11.3 23:38:54 10° SW 00:19:26 - NE 23:40:53 14° SW visible
31 Jul 10.1 02:36:42 27° N 02:36:42 27° N 02:41:24 10° NNE visible
31 Jul 11.0 19:51:58 10° SSW 20:12:38 30° SSE 20:16:38 29° SE visible
31 Jul 11.2 22:23:26 10° SW 22:33:57 31° SSW 22:33:57 31° SSW visible
01 Aug 10.5 01:29:17 21° NNE 01:29:17 21° NNE 01:31:43 10° NE visible
01 Aug 10.6 03:46:34 11° NW 03:47:51 11° NW 03:50:30 10° NNW visible
01 Aug 11.3 18:38:07 10° SSW 18:54:41 23° SSE 19:09:48 14° SE visible
01 Aug 10.8 21:08:50 10° SW 21:27:07 42° S 21:27:07 42° S visible
01 Aug 11.2 23:41:42 10° SW 00:21:51 - NE 23:44:26 15° SW visible
02 Aug 10.3 02:39:06 23° NNW 02:39:06 23° NNW 02:44:01 10° N visible
02 Aug 10.8 19:54:57 10° SSW 20:16:52 35° SSE 20:20:21 34° SE visible
02 Aug 11.1 22:26:00 10° SW 22:37:42 35° SW 22:37:42 35° SW visible
03 Aug 10.5 01:31:37 22° NNE 01:31:37 22° NNE 01:34:38 10° NNE visible
03 Aug 11.2 18:41:40 10° SSW 18:59:26 26° SSE 19:13:41 17° ESE visible
03 Aug 10.6 21:11:24 10° SW 21:31:02 50° S 21:31:02 50° S visible
03 Aug 11.1 23:44:45 10° WSW 00:24:06 11° NE 00:24:15 10° NE visible
04 Aug 10.5 02:41:21 19° NNW 02:41:21 19° NNW 02:46:26 10° N visible
04 Aug 10.7 19:57:44 10° SW 20:20:42 42° SSE 20:24:30 40° SE visible
04 Aug 11.0 22:28:42 10° SW 22:41:51 39° SW 22:41:51 39° SW visible
05 Aug 10.6 01:33:47 22° N 01:33:47 22° N 01:37:24 10° NNE visible
05 Aug 11.0 18:44:49 10° SSW 19:03:47 31° SSE 19:18:05 20° ESE visible
05 Aug 10.5 21:14:01 10° SW 21:35:27 60° S 21:35:27 60° S visible
